Le nostre stazioni meteo in Italia

Pubblicità
Il mio iltempo24.it
Olbia/Costa Smeralda, Italia (16531): Temperatura & dewpoint: 10.07.2018 20:00:00 - 16.07.2018 20:00:00 (CEST)Olbia/Costa Smeralda, Italia (16531): velocità del vento: 10.07.2018 20:00:00 - 16.07.2018 20:00:00 (CEST)Olbia/Costa Smeralda, Italia (16531): direzione del vento: 10.07.2018 20:00:00 - 16.07.2018 20:00:00 (CEST)Olbia/Costa Smeralda, Italia (16531): reduced air pressure: 10.07.2018 20:00:00 - 16.07.2018 20:00:00 (CEST)Olbia/Costa Smeralda, Italia (16531): visibility: 10.07.2018 20:00:00 - 16.07.2018 20:00:00 (CEST)Olbia/Costa Smeralda, Italia (16531): precipitazioni: 10.07.2018 20:00:00 - 16.07.2018 20:00:00 (CEST)
Data & Tempo tt [°C] td [°C] ff [km/h] ff [kn] dd ppp [hPa] vv [km] rr [mm]
16.07.2018 20:00:00 29,6 18,0 26 14 SO 1010,9 10 -
16.07.2018 19:00:00 31,0 17,0 42 23 OSO - 10 -
16.07.2018 18:00:00 - - - - - - - -
16.07.2018 17:00:00 - - - - - - - -
16.07.2018 16:00:00 33,0 19,0 21 11 ESE - 10 -
16.07.2018 15:00:00 31,0 17,0 16 9 SSE - 10 -
16.07.2018 14:00:00 28,4 20,6 13 7 SSO 1011,7 10 -
16.07.2018 13:00:00 29,0 18,0 11 6 NNE - 10 -
16.07.2018 12:00:00 28,0 20,0 5 3 ESE - 10 -
16.07.2018 11:00:00 29,5 18,4 4 2 - 1014,8 10 0,0
16.07.2018 10:00:00 28,0 19,0 4 2 - - 10 -
16.07.2018 09:00:00 27,0 21,0 5 3 E - 10 -
16.07.2018 08:00:00 26,0 21,1 8 4 S 1013,2 10 -
16.07.2018 07:00:00 24,0 20,0 8 4 S - 10 -
16.07.2018 06:00:00 24,0 20,0 8 4 E - 10 -
16.07.2018 05:00:00 23,5 19,4 8 4 OSO 1014,1 10 0,0
16.07.2018 04:00:00 23,0 20,0 8 4 SO - 10 -
16.07.2018 03:00:00 23,0 20,0 4 2 - - 10 -
16.07.2018 02:00:00 23,3 20,2 4 2 - 1013,6 10 -
16.07.2018 01:00:00 25,0 21,0 9 5 NO - 10 -
16.07.2018 00:00:00 25,0 21,0 4 2 - - 10 -
15.07.2018 23:00:00 25,6 20,7 4 2 - 1015,1 10 0,0
15.07.2018 22:00:00 27,0 21,0 2 1 - - 10 -
15.07.2018 21:00:00 29,0 21,0 8 4 E - 10 -
15.07.2018 20:00:00 30,3 21,0 11 6 E 1013,6 10 -
15.07.2018 19:00:00 33,0 21,0 13 7 ENE - 10 -
15.07.2018 18:00:00 34,0 21,0 13 7 ENE - 10 -
15.07.2018 17:00:00 33,8 20,3 21 11 E 1014,1 10 0,0
15.07.2018 16:00:00 36,0 20,0 18 10 ENE - 10 -
15.07.2018 15:00:00 36,0 19,0 13 7 - - 10 -
15.07.2018 14:00:00 36,7 15,8 9 5 NO 1014,1 10 -
15.07.2018 13:00:00 36,0 15,0 16 9 ONO - 10 -
15.07.2018 12:00:00 34,0 18,0 16 9 O - 10 -
15.07.2018 11:00:00 32,7 18,6 15 8 ONO 1014,5 10 0,0
15.07.2018 10:00:00 30,0 21,0 24 13 OSO - 10 -
15.07.2018 09:00:00 - - - - - - - -
15.07.2018 08:00:00 27,2 21,4 21 11 OSO 1014,4 10 -
15.07.2018 07:00:00 26,0 22,0 16 9 OSO - 10 -
15.07.2018 06:00:00 - - - - - - - -
15.07.2018 05:00:00 25,0 21,5 9 5 OSO 1013,8 - 0,0
15.07.2018 04:00:00 - - - - - - - -
15.07.2018 03:00:00 24,0 21,0 4 2 - - 10 -
15.07.2018 02:00:00 25,7 21,5 5 3 NNO 1014,0 10 -
15.07.2018 01:00:00 26,0 22,0 2 1 - - 10 -
15.07.2018 00:00:00 26,0 22,0 2 1 - - 10 -
14.07.2018 23:00:00 26,0 22,6 4 2 - 1014,0 10 0,0
14.07.2018 22:00:00 27,0 23,0 5 3 ENE - 10 -
14.07.2018 21:00:00 28,0 22,0 5 3 NE - 10 -
14.07.2018 20:00:00 30,2 21,4 9 5 ENE 1013,0 10 -
14.07.2018 19:00:00 32,0 20,0 13 7 E - 10 -
14.07.2018 18:00:00 32,0 20,0 26 14 E - 10 -
14.07.2018 17:00:00 31,7 21,2 24 13 ESE 1013,1 10 0,0
14.07.2018 16:00:00 34,0 16,0 26 14 E - 10 -
14.07.2018 15:00:00 33,0 18,0 24 13 E - 10 -
14.07.2018 14:00:00 33,1 17,8 24 13 E 1014,8 10 -
14.07.2018 13:00:00 32,0 18,0 28 15 E - 10 -
14.07.2018 12:00:00 31,0 20,0 21 11 E - 10 -
14.07.2018 11:00:00 29,7 22,3 24 13 E 1016,2 10 0,0
14.07.2018 10:00:00 28,0 23,0 18 10 E - 10 -
14.07.2018 09:00:00 27,0 22,0 4 2 - - 10 -
14.07.2018 08:00:00 23,3 21,4 2 1 - 1016,5 10 -
14.07.2018 07:00:00 21,0 20,0 2 1 - - 10 -
14.07.2018 06:00:00 21,0 20,0 2 1 - - 10 -
14.07.2018 05:00:00 21,0 19,8 5 3 SO 1016,3 10 0,0
14.07.2018 04:00:00 22,0 21,0 2 1 - - 10 -
14.07.2018 03:00:00 22,0 21,0 2 1 - - 10 -
14.07.2018 02:00:00 22,9 21,4 5 3 OSO 1016,2 10 -
14.07.2018 01:00:00 24,0 22,0 8 4 ONO - 10 -
14.07.2018 00:00:00 24,0 22,0 4 2 - - 10 -
13.07.2018 23:00:00 24,1 22,2 4 2 S 1017,0 21 0,0
13.07.2018 22:00:00 26,0 23,0 5 3 E - 10 -
13.07.2018 21:00:00 27,0 23,0 13 7 NE - 10 -
13.07.2018 20:00:00 28,1 22,2 15 8 E 1015,7 10 -
13.07.2018 19:00:00 30,0 22,0 16 9 ENE - 10 -
13.07.2018 18:00:00 30,0 23,0 21 11 ENE - 10 -
13.07.2018 17:00:00 30,4 21,8 21 11 E 1016,6 10 0,0
13.07.2018 16:00:00 31,0 19,0 22 12 E - 10 -
13.07.2018 15:00:00 32,0 18,0 16 9 ENE - 10 -
13.07.2018 14:00:00 31,7 17,5 16 9 NE 1017,3 10 -
13.07.2018 13:00:00 31,0 18,0 15 8 ENE - 10 -
13.07.2018 12:00:00 30,0 19,0 16 9 ENE - 10 -
13.07.2018 11:00:00 29,4 18,6 13 7 ENE 1017,3 10 0,0
13.07.2018 10:00:00 29,0 19,0 11 6 NE - 10 -
13.07.2018 09:00:00 27,0 17,0 4 2 - - 10 -
13.07.2018 08:00:00 24,4 18,1 2 1 - 1017,0 10 -
13.07.2018 07:00:00 19,0 17,0 4 2 - - 10 -
13.07.2018 06:00:00 19,0 17,0 4 2 - - 10 -
13.07.2018 05:00:00 19,4 16,8 4 2 O 1016,3 10 0,0
13.07.2018 04:00:00 20,0 17,0 2 1 - - 10 -
13.07.2018 03:00:00 21,0 18,0 8 4 OSO - 10 -
13.07.2018 02:00:00 21,3 18,0 8 4 OSO 1016,2 10 -
13.07.2018 01:00:00 22,0 19,0 2 1 - - 10 -
13.07.2018 00:00:00 24,0 20,0 4 2 OSO - 10 -
12.07.2018 23:00:00 24,5 19,7 8 4 ONO 1016,1 10 0,0
12.07.2018 22:00:00 26,0 20,0 2 1 - - 10 -
12.07.2018 21:00:00 27,0 20,0 8 4 E - 10 -
12.07.2018 20:00:00 28,5 18,9 15 8 E 1015,4 10 -
12.07.2018 19:00:00 30,0 17,0 15 8 E - 10 -
12.07.2018 18:00:00 30,0 16,0 21 11 E - 10 -
12.07.2018 17:00:00 31,0 15,1 18 10 E 1015,3 10 0,0
12.07.2018 16:00:00 32,0 14,0 21 11 E - 10 -
12.07.2018 15:00:00 31,0 16,0 22 12 ENE - 10 -
12.07.2018 14:00:00 31,6 15,4 22 12 E 1015,4 10 -
12.07.2018 13:00:00 33,0 13,0 16 9 ENE - 10 -
12.07.2018 12:00:00 33,0 11,0 5 3 - - 10 -
12.07.2018 11:00:00 31,0 11,2 8 4 - 1015,2 10 0,0
12.07.2018 10:00:00 29,0 11,0 8 4 - - 10 -
12.07.2018 09:00:00 27,0 14,0 4 2 - - 10 -
12.07.2018 08:00:00 25,3 15,5 4 2 - 1015,3 10 -
12.07.2018 07:00:00 22,0 15,0 5 3 - - 10 -
12.07.2018 06:00:00 22,0 16,0 21 11 OSO - 10 -
12.07.2018 05:00:00 22,4 16,1 15 8 OSO 1014,8 10 0,0
12.07.2018 04:00:00 - - - - - - - -
12.07.2018 03:00:00 - - - - - - - -
12.07.2018 02:00:00 23,4 15,4 15 8 OSO 1014,7 - -
12.07.2018 01:00:00 22,0 15,0 5 3 SE - 10 -
12.07.2018 00:00:00 25,0 15,0 8 4 OSO - 10 -
11.07.2018 23:00:00 24,7 15,8 5 3 NO 1014,5 10 0,0
11.07.2018 22:00:00 26,0 16,0 4 2 - - 10 -
11.07.2018 21:00:00 28,0 15,0 15 8 ONO - 10 -
11.07.2018 20:00:00 30,0 15,5 24 13 ONO 1013,0 10 -
11.07.2018 19:00:00 31,0 16,0 26 14 O - 10 -
11.07.2018 18:00:00 32,0 14,0 35 19 O - 10 -
11.07.2018 17:00:00 32,9 13,8 31 17 O 1012,4 10 0,0
11.07.2018 16:00:00 34,0 13,0 31 17 O - 10 -
11.07.2018 15:00:00 34,0 14,0 34 18 O - 10 -
11.07.2018 14:00:00 32,9 14,5 26 14 O 1012,5 10 -
11.07.2018 13:00:00 33,0 16,0 28 15 ONO - 10 -
11.07.2018 12:00:00 32,0 16,0 29 16 O - 10 -
11.07.2018 11:00:00 31,3 15,4 24 13 OSO 1012,9 10 0,0
11.07.2018 10:00:00 29,0 18,0 28 15 SO - 10 -
11.07.2018 09:00:00 26,0 18,0 28 15 OSO - 10 -
11.07.2018 08:00:00 25,3 17,5 21 11 OSO 1013,1 10 -
11.07.2018 07:00:00 23,0 16,0 16 9 OSO - 10 -
11.07.2018 06:00:00 23,0 16,0 18 10 SO - 10 -
11.07.2018 05:00:00 23,6 15,7 21 11 OSO 1012,7 - 0,0
11.07.2018 04:00:00 - - - - - - - -
11.07.2018 03:00:00 24,0 15,0 24 13 OSO - 10 -
11.07.2018 02:00:00 23,7 15,2 15 8 SO 1013,7 10 -
11.07.2018 01:00:00 24,0 15,0 18 10 OSO - 10 -
11.07.2018 00:00:00 24,0 15,0 15 8 OSO - 10 -
10.07.2018 23:00:00 24,3 15,5 4 2 - 1014,1 10 0,0
10.07.2018 22:00:00 26,0 21,0 5 3 ONO - 10 -
10.07.2018 21:00:00 27,0 22,0 5 3 E - 10 -
10.07.2018 20:00:00 28,3 21,5 13 7 E 1013,0 10 -

tt = Temperatura
td = dewpoint
ff = velocità del vento
dd = direzione del vento
ppp = reduced air pressure
vv = visibility
rr = precipitazioni

Stazioni seguenti

WeatherPro
AMSI
MeteoEarth